STARLINK-2107, 47723

Orbit data source: Space-Track

STARLINK-2107, 47723 is a payload satellite owned by SpaceX/Seattle (US) in LEO that was launched on Thu, 04 Mar 2021 UTC via an FALCON 9 launch vehicle from the Air Force Eastern Test Range (AFETR). Payload-class satellites include a variety of spacecraft equipped with specific instruments for various scientific and technological missions. These include communications satellites like Starlink; space stations such as the ISS; scientific satellites like the Hubble; Earth observation satellites from companies like Planet Labs, Umbra, and HawkEye 360; GPS; miniature CubeSats for education and research; and military/defense satellites.

Loading next visibility...
Identifier
47723, 2021-017B
Orbit
LEO
Country
Flag of USUS
Related business
Manufacturer
SpaceX/Seattle
Mission
Operational Commercial Communications
Bus & Motor
STARLINK, Unknown motor
Mass
260 kg wet, ~248 kg dry
Launch date (UTC)
2021-03-04 (5 years ago)
Launch vehicle
FALCON 9
Launch site
Air Force Eastern Test Range (AFETR)
Object type
Payload
Rocket body
Debris
Shape & HBR
Box + 1 Pan, 10.1 m
Radar Cross Section
13.562 m², Large (>1 m²)

Expand to show TLE details & history
Last TLE update: 18 hours ago

TLE from 18 hours ago
0 STARLINK-2107
1 47723U 21017B   26235.80271728  .00043673  00000-0  12358-2 0  9991
2 47723  53.1612  68.5876 0000933  78.6201 281.4907 15.35898859304551
Epoch: 2026-08-23T19:15Z
TLE epoch observation values (Epoch: 2026-08-23T19:15:54.772Z)
Latitude
Longitude
167.51584°
Altitude
459.027 km
Speed
7.639 km/s
True Right ascension
04h 34m 21s
True Declination
0° 00' 00"
Sunlit
Object was in daylight at epoch
Visualization orbit readout
Latitude
Unknown
Longitude
Unknown
Altitude
Unknown
Speed
Unknown
Apparent Right ascension
Unknown
Apparent Declination
Unknown
Sunlit
N/A
Visualization observer readout
Local Sidereal Time
04:18:50
Azimuth
Unknown
Elevation
Unknown
Doppler factor
Unknown
Orbital elements
Apogee altitude
459.147 km
Perigee altitude
457.871 km
Semi-major axis
6,836.646 km
Eccentricity
0.00009
Inclination
53.1612°
RAAN
68.5876°
Arg. of periapsis
78.6201°
True anomaly
281.48022°
Mean anomaly
281.4907°
Eccentric anomaly
281.48546°
Mean motion
3.83953 °/min
Orbital period
93.76 mins
BSTAR
0.0012358
Loading maneuver chart data...
Computing Atmospheric mass density...

Documentation

Showing up to 5 results
|